Probability
30 27 24 24 26 28 28 27 31 37 42 47 51 50 46 42 38 33 30 28 26 26 25 25 26 27 26 23 19 18 15 11 10 9 7 5 3 2 2 3 5 7 7
25 23 20 19 22 25 25 25 29 34 37 41 44 45 43 39 34 29 26 24 22 22 22 23 23 24 23 21 18 15 13 10 8 8 7 4 2 1 1 2 3 5 5
22 19 16 16 19 21 20 21 24 28 30 33 38 40 39 34 28 23 20 19 18 18 18 18 18 19 18 17 14 12 11 9 7 6 6 4 3 1 0 1 2 2 2
25 21 18 16 17 17 16 18 20 23 24 28 33 35 33 28 22 18 17 16 14 13 13 12 12 12 12 12 11 10 10 9 7 5 5 5 4 1 0 0 1 1 1
29 24 18 14 13 12 11 13 15 17 19 21 25 27 24 19 17 16 15 13 11 9 8 8 7 7 7 8 9 9 9 8 7 6 5 4 3 1 0 0 0 0 0
27 21 14 10 8 7 7 8 10 11 12 14 16 17 16 14 13 13 12 10 8 6 5 4 4 4 4 5 7 7 7 7 7 7 5 4 3 1 0 0 0 0 0
19 16 10 6 4 3 5 5 5 6 7 9 10 11 11 11 11 10 9 7 5 3 3 3 3 3 3 4 4 5 6 6 6 6 5 3 3 2 0 0 0 0 0
13 9 5 3 1 1 3 3 3 3 3 5 5 6 7 7 7 7 5 3 1 1 2 3 3 3 3 3 3 4 5 6 6 6 5 2 2 1 0 0 0 0 0
7 4 2 1 0 0 1 1 1 1 1 1 2 2 3 2 2 2 1 0 0 1 2 3 3 3 3 3 3 4 4 5 5 5 4 1 0 0 0 0 0 0 0
3 1 0 0 0 0 0 0 0 0 0 0 0 0 0 0 0 0 0 0 0 0 1 2 2 2 2 3 3 3 3 3 3 3 2 0 0 0 0 0 0 0 0
1 0 0 0 0 0 0 0 0 0 0 0 0 0 0 0 0 0 0 0 0 0 0 1 1 1 1 1 2 2 2 1 1 1 0 0 0 0 0 0 0 0 0
0 0 0 0 0 0 0 0 0 0 0 0 0 0 0 0 0 0 0 0 0 0 0 0 0 0 0 0 1 1 1 0 0 0 0 0 0 0 0 0 0 0 0
0 0 0 0 0 0 0 0 0 0 0 0 0 0 0 0 0 0 0 0 0 0 0 0 0 0 0 0 0 0 0 0 0 0 0 0 0 0 0 0 0 0 0
0 0 0 0 0 0 0 0 0 0 0 0 0 0 0 0 0 0 0 0 0 0 0 0 0 0 0 0 0 0 0 0 0 0 0 0 0 0 0 0 0 0 0
0 0 0 0 0 0 0 0 0 0 0 0 0 0 0 0 0 0 0 0 0 0 0 0 0 0 0 0 0 0 0 0 0 0 0 0 0 0 0 0 0 0 0
0 0 0 0 0 0 0 0 0 0 0 0 0 0 0 0 0 0 0 0 0 0 0 0 0 0 0 0 0 0 0 0 0 0 0 0 0 0 0 0 0 0 0
0 0 0 0 0 0 0 0 0 0 0 0 0 0 0 0 0 0 0 0 0 0 0 0 0 0 0 0 0 0 0 0 0 0 0 0 0 0 0 0 0 0 0
0 0 0 0 0 0 0 0 0 0 0 0 0 0 0 0 0 0 0 0 0 0 0 0 0 0 0 0 0 0 0 0 0 0 0 0 0 0 0 0 0 0 0
0 0 0 0 0 0 0 0 0 0 0 0 0 0 0 0 0 0 0 0 0 0 0 0 0 0 0 0 0 0 0 0 0 0 0 0 0 0 0 0 0 0 0
0 0 0 0 0 0 0 0 0 0 0 0 0 0 0 0 0 0 0 0 0 0 0 0 0 0 0 0 0 0 0 0 0 0 0 0 0 0 0 0 0 0 0
0 0 0 0 0 0 0 0 0 0 0 0 0 0 0 0 0 0 0 0 0 0 0 0 0 0 0 0 0 0 0 0 0 0 0 0 0 0 0 0 0 0 0
0 0 0 0 0 0 0 0 0 0 0 0 0 0 0 0 0 0 0 0 0 0 0 0 0 0 0 0 0 0 0 0 0 0 0 0 0 0 0 0 0 0 0
0 0 0 0 0 0 0 0 0 0 0 0 0 0 0 0 0 0 0 0 0 0 0 0 0 0 0 0 0 0 0 0 0 0 0 0 0 0 0 0 0 0 0
0 0 0 0 0 0 0 0 0 0 0 0 0 0 0 0 0 0 0 0 0 0 0 0 0 0 0 0 0 0 0 0 0 0 0 0 0 0 0 0 0 0 0
0 0 0 0 0 0 0 0 0 0 0 0 0 0 0 0 0 0 0 0 0 0 0 0 0 0 0 0 0 0 0 0 0 0 0 0 0 0 0 0 0 0 0
0 0 0 0 0 0 0 0 0 0 0 0 0 0 0 0 0 0 0 0 0 0 0 0 0 0 0 0 0 0 0 0 0 0 0 0 0 0 0 0 0 0 0
Wind_Speed
12 11 10 9 9 10 10 9 8 7 5 3 2 2 2 2 3 3 4 4 4 4 3 3 2 2 2 2 2 1 2 1 2 2 2 2 3 4 3 2 3 3 4
11 11 10 9 9 9 9 8 8 7 6 4 2 1 2 2 3 4 4 5 5 5 4 3 3 3 2 2 2 1 1 1 2 2 3 2 2 3 4 3 3 3 4
10 10 10 10 9 10 9 8 8 7 7 5 3 2 2 2 3 3 3 4 5 5 5 5 4 4 3 2 2 2 2 2 2 2 2 3 3 2 2 4 4 4 4
10 10 10 10 10 9 9 9 9 8 8 7 5 4 3 3 4 3 3 4 5 6 6 6 5 5 4 3 3 2 2 1 1 1 1 1 3 4 3 2 4 5 6
11 11 11 10 9 9 9 8 9 9 9 8 7 6 6 5 4 4 4 4 5 6 6 6 5 5 4 4 3 3 2 1 0 1 1 2 2 2 4 4 3 4 5
12 12 11 10 9 9 9 8 9 10 9 9 9 8 8 6 5 5 4 4 4 5 7 6 6 5 4 4 4 3 3 3 2 2 2 2 2 3 3 4 4 4 4
12 11 10 10 9 9 9 9 10 9 9 9 9 8 7 6 7 5 5 5 5 5 6 6 5 5 5 5 4 4 4 4 3 3 2 2 2 2 3 6 5 5 3
12 11 10 9 9 9 9 9 9 9 9 8 8 7 7 5 6 6 6 5 5 5 5 6 6 6 6 6 5 5 4 4 4 4 3 3 3 3 4 5 6 6 3
12 11 10 9 9 9 9 9 9 8 8 8 7 7 8 7 7 6 6 5 5 5 6 6 6 6 7 6 6 5 5 4 4 4 4 4 3 3 4 4 4 5 5
12 11 10 9 9 8 8 8 8 8 7 7 6 6 7 7 7 6 7 6 6 5 5 6 6 7 7 7 6 5 6 6 6 5 6 5 4 4 4 3 3 3 5
12 10 9 9 8 8 7 7 7 7 7 8 7 7 6 7 7 6 7 6 6 6 6 6 6 7 7 7 7 7 7 8 7 7 7 6 5 4 3 3 3 3 4
12 10 9 9 8 8 8 7 7 7 7 7 7 7 7 7 7 7 7 6 6 6 6 6 7 8 8 7 8 9 8 8 8 8 8 7 6 5 4 4 4 4 4
12 10 9 8 8 8 7 7 7 7 6 7 7 7 7 7 7 6 6 6 6 6 6 7 7 8 7 8 8 8 8 8 8 8 9 8 7 7 6 6 5 5 5
11 10 9 8 8 7 7 6 6 6 6 7 7 7 6 6 6 5 5 5 6 6 7 7 8 9 10 9 8 8 8 8 9 9 9 9 9 7 6 6 6 5 5
11 10 10 9 8 7 6 6 6 6 5 6 7 6 6 6 6 6 6 6 7 8 7 8 9 9 9 10 9 7 8 7 8 8 8 9 11 12 8 7 5 5 4
12 11 10 9 8 7 6 6 6 5 5 6 6 6 6 6 5 5 6 6 7 7 7 9 9 10 9 13 15 10 7 6 7 6 5 7 9 10 11 12 10 8 5
12 11 10 9 8 7 6 6 5 5 5 6 6 6 6 6 5 6 6 6 6 6 7 7 8 8 11 15 15 13 6 7 7 7 6 7 9 9 6 7 9 9 10
12 11 10 9 8 7 6 5 6 6 6 6 6 6 6 6 5 5 6 5 5 5 6 6 7 7 10 14 14 12 5 6 6 7 7 7 8 9 7 5 6 6 7
11 10 10 9 8 7 7 6 6 6 6 6 5 6 6 6 6 5 5 4 4 5 5 5 6 6 8 12 13 10 3 5 6 8 9 8 8 11 10 5 5 5 4
10 10 9 9 8 6 6 6 7 6 6 5 6 6 5 5 5 4 4 3 3 4 5 5 6 6 6 10 13 11 4 3 4 5 7 11 9 10 10 6 5 5 3
11 10 10 8 7 6 6 6 6 6 6 6 6 5 5 5 5 3 3 3 4 4 4 5 5 5 5 6 10 11 6 4 4 4 4 5 8 9 9 6 4 3 3
12 11 9 8 7 6 6 6 6 6 6 6 6 4 3 4 5 3 3 3 3 3 3 3 4 4 3 4 6 9 9 7 5 4 4 3 5 6 6 4 4 6 5
11 9 9 8 7 6 6 7 6 5 6 6 5 4 4 4 3 2 2 2 2 2 2 2 3 4 3 2 2 4 6 7 4 3 2 2 3 4 3 3 5 5 3
11 9 9 9 7 6 7 6 6 6 6 6 5 3 3 3 2 1 2 2 3 3 2 2 3 3 4 4 3 2 1 1 1 1 2 4 5 4 4 3 3 2 1
9 9 8 8 9 8 7 7 6 6 5 5 4 4 3 4 4 5 5 5 5 5 4 5 5 4 4 3 4 4 4 4 5 5 3 3 3 2 2 2 1 1 1
9 9 9 9 9 9 8 7 6 6 5 4 4 4 4 3 4 5 5 7 5 6 8 7 5 5 5 2 3 5 6 6 7 5 4 3 1 0 1 1 1 1 2
Wind_Direction
102 92 81 75 71 64 58 52 46 38 34 33 28 52 57 50 58 56 43 35 22 7 353 339 328 305 284 275 271 237 228 218 153 132 114 82 65 58 54 61 78 81 88
106 96 87 76 68 63 57 51 41 33 30 25 21 38 60 63 65 51 41 33 25 8 359 354 331 329 310 298 296 281 237 216 188 169 151 145 101 55 44 47 61 74 79
105 96 87 76 69 61 54 50 40 33 24 16 22 40 75 75 61 49 41 27 23 21 11 2 352 346 339 341 325 293 252 229 208 181 161 157 158 127 62 47 52 59 66
112 101 87 74 66 61 58 53 45 37 26 21 28 36 55 60 45 39 41 37 35 27 20 16 9 1 1 356 340 339 299 235 209 175 137 105 131 143 129 73 57 62 61
110 100 90 81 71 63 59 56 51 42 34 33 35 41 49 51 48 44 43 37 40 31 23 22 15 9 8 6 9 9 10 3 282 151 136 126 108 111 133 133 110 70 52
109 101 96 87 75 66 60 58 55 46 40 40 41 46 50 51 51 43 37 35 41 32 23 24 21 18 16 14 15 22 34 34 46 72 92 122 138 141 128 132 127 102 68
115 108 100 90 80 69 62 59 58 52 46 47 46 43 45 47 46 39 39 37 39 34 21 23 21 21 22 25 24 35 35 42 55 64 65 71 80 103 114 126 127 113 96
114 106 97 89 82 73 66 62 60 55 49 51 49 44 41 46 48 44 43 43 41 39 26 26 28 28 28 36 37 40 39 44 53 63 73 78 79 95 117 130 133 123 109
114 107 100 93 85 77 69 66 64 60 53 53 54 52 48 48 49 46 46 46 39 44 41 38 37 35 35 37 44 48 47 45 50 60 70 80 85 93 101 114 129 136 138
113 108 103 98 92 87 80 73 68 65 58 53 50 58 54 53 52 51 47 47 46 44 46 47 44 41 39 37 42 50 48 55 55 64 70 72 81 92 106 116 106 111 127
124 117 109 104 102 97 92 84 77 72 67 61 55 52 52 54 59 56 53 45 44 45 47 49 53 50 46 43 46 51 50 55 54 57 69 73 78 87 95 102 101 98 108
120 116 114 112 105 96 88 82 76 74 72 72 68 59 53 52 56 56 52 47 44 45 48 49 53 56 52 47 50 51 51 54 56 56 62 63 69 74 80 86 96 103 106
122 120 117 109 101 95 88 81 77 74 74 77 76 68 61 57 57 54 50 51 52 49 49 51 52 51 51 51 51 53 53 54 54 54 55 54 56 58 63 75 80 92 103
128 125 118 111 104 99 94 91 84 79 80 80 79 74 66 60 58 56 54 54 57 55 52 51 51 50 45 41 45 56 57 58 59 59 58 54 53 54 59 71 72 85 95
134 130 125 117 111 106 100 97 93 87 87 87 83 80 74 66 60 54 53 54 59 62 56 55 52 51 47 31 27 46 64 63 64 65 71 72 69 65 62 69 64 76 88
138 133 127 125 121 118 113 105 100 101 95 90 91 88 82 77 71 64 56 56 58 60 60 59 56 49 39 22 26 30 46 54 58 63 70 79 66 68 73 76 71 64 70
137 136 133 131 129 128 122 116 112 110 100 94 97 94 89 84 78 76 68 61 60 63 66 70 66 56 32 23 21 21 43 57 54 50 49 59 57 45 49 70 73 62 54
138 136 132 129 128 126 124 122 121 114 106 101 97 93 91 91 87 83 79 69 63 67 69 69 66 58 36 23 17 9 49 60 59 56 56 60 47 31 24 53 68 68 53
131 130 130 130 132 134 134 130 121 115 109 105 104 106 105 100 93 85 81 75 75 79 80 76 70 60 40 23 16 9 51 70 66 61 49 49 48 28 27 45 64 72 71
123 126 128 131 132 131 129 124 122 122 118 113 105 103 102 98 93 90 91 90 88 89 86 79 71 64 51 28 23 14 33 76 91 90 75 55 44 32 30 34 46 50 36
129 132 133 131 132 134 131 128 128 126 122 114 107 102 107 112 106 99 94 93 87 87 94 98 88 72 59 48 34 30 26 19 60 82 76 53 33 32 30 35 44 25 334
137 136 134 133 137 139 138 130 124 126 124 119 114 115 127 121 110 109 108 106 114 119 120 126 119 101 75 46 32 29 31 26 42 58 65 63 27 16 9 15 1 347 335
138 139 141 139 139 142 140 132 131 133 130 123 120 119 108 95 110 132 142 155 174 163 161 156 130 126 123 94 16 9 17 26 35 40 30 359 331 320 302 294 317 328 328
143 145 147 144 143 146 140 134 134 132 131 130 126 124 124 119 108 81 74 63 45 29 23 84 103 108 89 64 23 351 39 9 23 349 298 276 281 282 295 287 271 256 346
146 149 149 145 143 144 140 137 132 132 136 142 147 144 121 102 87 71 51 60 56 50 37 30 40 61 79 53 25 15 16 9 13 335 297 253 233 228 227 229 193 149 90
149 152 153 150 147 146 142 139 140 140 144 154 160 149 142 142 134 123 101 62 80 84 73 64 66 75 89 104 11 3 351 346 351 336 296 293 300 356 36 32 50 74 59